| time (UTC) | temp C | wind direction | speed KPH | gust KPH | rain 1hr cm | rain 24hr cm | rain mn cm | humidity % | barometer mb |
| 20260508110111 | 13 | 248 | 6.4 | 14.5 | 0.00 | 0.00 | 0.00 | 33 | 1024.9 |
| 20260508110005 | 13 | 284 | 4.8 | 14.5 | 0.00 | 0.00 | 0.00 | 33 | 1024.9 |
| 20260508104502 | 13 | 314 | 3.2 | 16.1 | 0.00 | 0.00 | 0.00 | 32 | 1024.9 |
| 20260508103002 | 13 | 51 | 8.0 | 19.3 | 0.00 | 0.00 | 0.00 | 31 | 1025.0 |
| 20260508101501 | 13 | 270 | 1.6 | 16.1 | 0.00 | 0.00 | 0.00 | 31 | 1024.8 |
| 20260508100004 | 12 | 57 | 4.8 | 17.7 | 0.00 | 0.00 | 0.00 | 33 | 1024.9 |
| 20260508094501 | 12 | 301 | 6.4 | 17.7 | 0.00 | 0.00 | 0.00 | 34 | 1024.9 |
| 20260508093001 | 12 | 321 | 4.8 | 20.9 | 0.00 | 0.00 | 0.00 | 36 | 1024.9 |
| 20260508091501 | 12 | 304 | 3.2 | 12.9 | 0.00 | 0.00 | 0.00 | 35 | 1024.9 |
| 20260508090003 | 12 | 355 | 4.8 | 14.5 | 0.00 | 0.00 | 0.00 | 35 | 1025.0 |
| 20260508084501 | 12 | 5 | 6.4 | 16.1 | 0.00 | 0.00 | 0.00 | 35 | 1025.0 |
| 20260508083001 | 11 | 337 | 3.2 | 17.7 | 0.00 | 0.00 | 0.00 | 36 | 1025.1 |
| 20260508081501 | 11 | 60 | 6.4 | 19.3 | 0.00 | 0.00 | 0.00 | 38 | 1025.1 |
| 20260508080009 | 11 | 32 | 6.4 | 16.1 | 0.00 | 0.00 | 0.00 | 39 | 1025.0 |
| 20260508074501 | 11 | 274 | 4.8 | 16.1 | 0.00 | 0.00 | 0.00 | 42 | 1024.9 |
| 20260508073003 | 10 | 282 | 3.2 | 8.0 | 0.00 | 0.00 | 0.00 | 42 | 1024.7 |
| 20260508071501 | 10 | 271 | 3.2 | 12.9 | 0.00 | 0.00 | 0.00 | 42 | 1024.8 |
| 20260508070011 | 10 | 308 | 3.2 | 12.9 | 0.00 | 0.00 | 0.00 | 44 | 1024.7 |
| 20260508064505 | 9 | 282 | 4.8 | 9.7 | 0.00 | 0.00 | 0.00 | 44 | 1024.5 |
| 20260508063000 | 8 | 298 | 4.8 | 12.9 | 0.00 | 0.00 | 0.00 | 45 | 1024.3 |
| 20260508061501 | 8 | 275 | 3.2 | 9.7 | 0.00 | 0.00 | 0.00 | 47 | 1024.1 |
| 20260508060004 | 7 | 296 | 3.2 | 11.3 | 0.00 | 0.00 | 0.00 | 49 | 1024.0 |
| 20260508054501 | 7 | 288 | 4.8 | 8.0 | 0.00 | 0.00 | 0.00 | 54 | 1023.9 |
| 20260508053001 | 7 | 5 | 1.6 | 6.4 | 0.00 | 0.00 | 0.00 | 59 | 1023.8 |
| 20260508051500 | 6 | 62 | 1.6 | 8.0 | 0.00 | 0.00 | 0.00 | 66 | 1023.7 |
| 20260508050002 | 5 | 342 | 1.6 | 4.8 | 0.00 | 0.00 | 0.00 | 69 | 1023.5 |
| 20260508044501 | 3 | 11 | 1.6 | 4.8 | 0.00 | 0.00 | 0.00 | 74 | 1023.4 |
| 20260508043001 | 2 | 321 | 0.0 | 1.6 | 0.00 | 0.00 | 0.00 | 77 | 1023.4 |
| 20260508041503 | 1 | 321 | 0.0 | 1.6 | 0.00 | 0.00 | 0.00 | 78 | 1023.3 |
| 20260508040010 | 1 | 321 | 0.0 | 1.6 | 0.00 | 0.00 | 0.00 | 79 | 1023.2 |
| 20260508034502 | 0 | 321 | 0.0 | 1.6 | 0.00 | 0.00 | 0.00 | 83 | 1023.1 |
| 20260508033002 | 0 | 321 | 0.0 | 0.0 | 0.00 | 0.00 | 0.00 | 87 | 1022.9 |
| 20260508031501 | -2 | 321 | 0.0 | 1.6 | 0.00 | 0.00 | 0.00 | 90 | 1022.7 |
| 20260508030003 | -2 | 321 | 0.0 | 1.6 | 0.00 | 0.00 | 0.00 | 89 | 1022.7 |
| 20260508024501 | -2 | 321 | 0.0 | 0.0 | 0.00 | 0.00 | 0.00 | 88 | 1022.6 |
| 20260508023000 | -2 | 321 | 0.0 | 1.6 | 0.00 | 0.00 | 0.00 | 88 | 1022.4 |
| 20260508021501 | -2 | 321 | 0.0 | 0.0 | 0.00 | 0.00 | 0.00 | 87 | 1022.0 |
| 20260508020003 | -2 | 321 | 0.0 | 0.0 | 0.00 | 0.00 | 0.00 | 86 | 1021.9 |
| 20260508014502 | -1 | 321 | 0.0 | 0.0 | 0.00 | 0.00 | 0.00 | 85 | 1021.7 |
| 20260508013000 | -1 | 321 | 0.0 | 1.6 | 0.00 | 0.00 | 0.00 | 84 | 1021.5 |
| 20260508011502 | -1 | 321 | 0.0 | 1.6 | 0.00 | 0.00 | 0.00 | 82 | 1021.4 |
| 20260508010002 | 0 | 321 | 0.0 | 3.2 | 0.00 | 0.00 | 0.00 | 82 | 1021.2 |
| 20260508004500 | 0 | 297 | 0.0 | 1.6 | 0.00 | 0.00 | 0.00 | 82 | 1021.1 |
| 20260508003000 | 0 | 297 | 0.0 | 1.6 | 0.00 | 0.00 | 0.00 | 81 | 1021.0 |
| 20260508001601 | 0 | 297 | 0.0 | 1.6 | 0.00 | 0.00 | 0.00 | 79 | 1020.7 |
| 20260508000005 | 0 | 297 | 1.6 | 3.2 | 0.00 | 0.00 | 0.00 | 78 | 1020.5 |
| 20260507234502 | 1 | 297 | 0.0 | 3.2 | 0.00 | 0.00 | 0.00 | 76 | 1020.3 |
| 20260507233002 | 1 | 297 | 0.0 | 1.6 | 0.00 | 0.00 | 0.00 | 75 | 1020.1 |
| 20260507231502 | 2 | 307 | 0.0 | 4.8 | 0.00 | 0.00 | 0.00 | 73 | 1020.0 |
| 20260507230011 | 2 | 333 | 0.0 | 6.4 | 0.00 | 0.00 | 0.00 | 71 | 1019.9 |
| 20260507224502 | 2 | 310 | 0.0 | 3.2 | 0.00 | 0.00 | 0.00 | 70 | 1019.8 |
| 20260507223002 | 2 | 304 | 0.0 | 9.7 | 0.00 | 0.00 | 0.00 | 69 | 1019.5 |
| 20260507221501 | 3 | 305 | 0.0 | 4.8 | 0.00 | 0.00 | 0.00 | 67 | 1019.4 |
| 20260507220001 | 3 | 298 | 1.6 | 6.4 | 0.00 | 0.00 | 0.00 | 66 | 1019.3 |
| 20260507214604 | 3 | 306 | 1.6 | 4.8 | 0.00 | 0.00 | 0.00 | 65 | 1019.1 |
| 20260507213103 | 3 | 304 | 0.0 | 4.8 | 0.00 | 0.00 | 0.00 | 65 | 1019.0 |
| 20260507211603 | 3 | 309 | 0.0 | 3.2 | 0.00 | 0.00 | 0.00 | 64 | 1018.6 |
| 20260507210114 | 3 | 309 | 0.0 | 3.2 | 0.00 | 0.00 | 0.00 | 63 | 1018.5 |
| 20260507210005 | 3 | 309 | 0.0 | 3.2 | 0.00 | 0.00 | 0.00 | 62 | 1018.5 |
| 20260507204559 | 4 | 296 | 0.0 | 1.6 | 0.00 | 0.00 | 0.00 | 60 | 1018.2 |
| 20260507203100 | 5 | 296 | 1.6 | 6.4 | 0.00 | 0.00 | 0.00 | 58 | 1018.1 |
| 20260507201600 | 5 | 288 | 0.0 | 1.6 | 0.00 | 0.00 | 0.00 | 56 | 1017.9 |
| 20260507200106 | 5 | 288 | 1.6 | 6.4 | 0.00 | 0.00 | 0.00 | 54 | 1017.7 |
| 20260507200002 | 5 | 349 | 0.0 | 4.8 | 0.00 | 0.00 | 0.00 | 54 | 1017.6 |
| 20260507194601 | 6 | 342 | 1.6 | 4.8 | 0.00 | 0.00 | 0.00 | 52 | 1017.4 |
| 20260507193059 | 6 | 290 | 0.0 | 4.8 | 0.00 | 0.00 | 0.00 | 49 | 1017.2 |
| 20260507191603 | 7 | 261 | 0.0 | 4.8 | 0.00 | 0.00 | 0.00 | 46 | 1017.0 |
| 20260507190113 | 7 | 291 | 0.0 | 6.4 | 0.00 | 0.00 | 0.00 | 45 | 1016.9 |
| 20260507190006 | 7 | 286 | 1.6 | 6.4 | 0.00 | 0.00 | 0.00 | 44 | 1016.9 |
| 20260507184600 | 8 | 285 | 1.6 | 8.0 | 0.00 | 0.00 | 0.00 | 42 | 1016.7 |
| 20260507183117 | 8 | 300 | 1.6 | 4.8 | 0.00 | 0.00 | 0.00 | 40 | 1016.5 |
| 20260507181606 | 8 | 360 | 3.2 | 11.3 | 0.00 | 0.00 | 0.00 | 39 | 1016.4 |
| 20260507180106 | 9 | 360 | 3.2 | 17.7 | 0.00 | 0.00 | 0.00 | 36 | 1016.1 |
| 20260507180002 | 9 | 318 | 3.2 | 17.7 | 0.00 | 0.00 | 0.00 | 36 | 1016.1 |
| 20260507174608 | 10 | 323 | 6.4 | 17.7 | 0.00 | 0.00 | 0.00 | 35 | 1016.0 |
| 20260507173118 | 10 | 292 | 4.8 | 14.5 | 0.00 | 0.00 | 0.00 | 34 | 1015.7 |
| 20260507171601 | 11 | 263 | 4.8 | 12.9 | 0.00 | 0.00 | 0.00 | 30 | 1015.5 |
| 20260507170101 | 11 | 297 | 4.8 | 12.9 | 0.00 | 0.00 | 0.00 | 29 | 1015.4 |
| 20260507170002 | 11 | 285 | 3.2 | 12.9 | 0.00 | 0.00 | 0.00 | 29 | 1015.4 |
| 20260507164633 | 11 | 273 | 6.4 | 14.5 | 0.00 | 0.00 | 0.00 | 28 | 1015.4 |
| 20260507163101 | 11 | 329 | 3.2 | 17.7 | 0.00 | 0.00 | 0.00 | 28 | 1015.2 |
| 20260507161605 | 11 | 47 | 4.8 | 14.5 | 0.00 | 0.00 | 0.00 | 28 | 1015.1 |
| 20260507160004 | 12 | 324 | 3.2 | 20.9 | 0.00 | 0.00 | 0.00 | 27 | 1014.9 |
| 20260507154601 | 12 | 311 | 3.2 | 17.7 | 0.00 | 0.00 | 0.00 | 27 | 1014.7 |
| 20260507153100 | 12 | 312 | 11.3 | 24.1 | 0.00 | 0.00 | 0.00 | 27 | 1014.5 |
| 20260507151600 | 12 | 319 | 4.8 | 20.9 | 0.00 | 0.00 | 0.00 | 28 | 1014.4 |
| 20260507150100 | 13 | 289 | 4.8 | 24.1 | 0.00 | 0.00 | 0.00 | 29 | 1014.1 |
| 20260507150003 | 13 | 25 | 6.4 | 24.1 | 0.00 | 0.00 | 0.00 | 28 | 1014.2 |
| 20260507144602 | 14 | 239 | 8.0 | 20.9 | 0.00 | 0.00 | 0.00 | 27 | 1014.1 |
| 20260507143119 | 14 | 313 | 6.4 | 12.9 | 0.00 | 0.00 | 0.00 | 25 | 1014.0 |
| 20260507141604 | 13 | 269 | 4.8 | 11.3 | 0.00 | 0.00 | 0.00 | 25 | 1013.8 |
| 20260507140100 | 13 | 40 | 3.2 | 11.3 | 0.00 | 0.00 | 0.00 | 25 | 1013.9 |
| 20260507140002 | 13 | 36 | 1.6 | 9.7 | 0.00 | 0.00 | 0.00 | 25 | 1013.9 |
| 20260507134600 | 13 | 296 | 4.8 | 14.5 | 0.00 | 0.00 | 0.00 | 23 | 1013.9 |
| 20260507133100 | 13 | 178 | 3.2 | 12.9 | 0.00 | 0.00 | 0.00 | 23 | 1013.7 |
| 20260507131606 | 13 | 180 | 1.6 | 12.9 | 0.00 | 0.00 | 0.00 | 23 | 1013.8 |
| 20260507130100 | 13 | 298 | 4.8 | 11.3 | 0.00 | 0.00 | 0.00 | 24 | 1013.9 |
| 20260507130002 | 13 | 319 | 3.2 | 11.3 | 0.00 | 0.00 | 0.00 | 24 | 1013.8 |
| 20260507124606 | 13 | 28 | 1.6 | 12.9 | 0.00 | 0.00 | 0.00 | 23 | 1013.7 |
| 20260507123100 | 13 | 53 | 9.7 | 17.7 | 0.00 | 0.00 | 0.00 | 23 | 1013.9 |
| 20260507121601 | 13 | 298 | 4.8 | 14.5 | 0.00 | 0.00 | 0.00 | 24 | 1013.7 |
| 20260507120100 | 13 | 329 | 3.2 | 12.9 | 0.00 | 0.00 | 0.00 | 23 | 1013.9 |
| 20260507120006 | 13 | 298 | 3.2 | 12.9 | 0.00 | 0.00 | 0.00 | 24 | 1013.9 |
| 20260507114611 | 12 | 78 | 4.8 | 11.3 | 0.00 | 0.00 | 0.00 | 23 | 1013.9 |
| 20260507113129 | 13 | 293 | 3.2 | 8.0 | 0.00 | 0.00 | 0.00 | 25 | 1014.0 |
| 20260507111600 | 13 | 275 | 3.2 | 11.3 | 0.00 | 0.00 | 0.00 | 26 | 1014.0 |